Weather in Kalamaki

Greece     37°44′16″N   20°53′35″E
temp.,
°C
wind,
m/s
gust,
m/s
humid.,
%
clouds,
%
prec.,
mm/h
press.,
hPa
HPBL,
m
18 january, tue
tue1823:00+14nw67720 0.1 1021716
02:00+14nw77700 0.4 1021814
05:00+14nw910675 0.3 10211208
08:00+14nnw78652 0.3 10221190
11:00+13n88680 0.0 10231017
14:00+13n67630 0.0 1023882
17:00+14n78580 0.0 1023894
20:00+14nne88460 0.0 1025949
19 january, wed
wed1923:00+13nne66500 0.0 1026768
02:00+12nne44530 0.0 1027549
05:00+11ne33550 0.0 1026375
08:00+11ene33571 0.0 1028350
11:00+11e22604 0.0 1030397
14:00+11e12665 0.0 1029405
17:00+12e23645 0.0 1028557
20:00+13sw23613 0.1 1028899
20 january, thu
thu2023:00
02:00+13wsw555810 0.3 10281007
05:00+12w545711 0.0 1027965
08:00
11:00+12wnw23540 0.0 1027874
14:00+13w235869 0.0 1024959
17:00+13sw5673100 0.1 1023813
20:00+14wsw996953 0.9 10221098
21 january, fri
fri2123:00+14wsw6762100 0.1 1021990
02:00+14wsw79705 1.6 1019955
05:00+14wsw910705 1.0 10181099
08:00+14wsw9106621 1.4 10181262
11:00+14wsw912630 0.2 10181411
14:00+15w1011625 0.2 10161553
17:00+14w78631 0.1 10161193
20:00+14w89692 0.3 10161056
22 january, sat
sat2223:00+14w89669 0.5 10161124
02:00+13wnw6774100 1.1 1015840
05:00+12nw111165100 0.4 1015887
08:00+12nw7861100 0.4 10151182
11:00+11nw7761100 0.0 10161297
14:00+10nw9961100 0.3 10151278
17:00+10nw111153100 0.0 10141614
20:00+9nw9856100 0.1 10131493